Flag for U.S.A. Weather past 2 weeks in Paradise, Nevada, U.S.A.

Now
97 °F

Broken clouds.


Feels Like: 95 °F
Forecast: 82 / 95 °F
Wind: 12 mph from Southwest

Location: McCarran International Airport

Current Time: Jul 31, 2015 at 8:53:18 PM

Latest Report: Jul 31, 2015 at 7:56 PM


Visibility: 10 mi

Pressure: 29.80 "Hg (27.75 "Hg at 643m altitude)

Humidity: 23%

Dew point: 53 °F

Location of ParadiseLocation

Historic Weather in Paradise — Graph

°F

Paradise temperature yesterday

Maximum temperature yesterday: 104 °F (at 5:56 PM)
Minimum temperature yesterday: 87 °F (at 4:56 AM)
Average temperature yesterday: 95 °F

Past Weeks' High & Low Weather Summary

 TemperatureHumidityPressure
High104 °F (Jul 17, 2:56 PM)64% (Jul 19, 4:56 AM)30.03 "Hg (Jul 19, 4:56 AM)
Low74 °F (Jul 19, 4:56 AM)4% (Jul 26, 5:56 PM)29.58 "Hg (Jul 17, 6:56 PM)
Average90 °F22%29.80 "Hg
* Reported Jul 16 7:56 PM — Jul 31 7:56 PM, Paradise, Weather by CustomWeather, © 2015

Note: Actual official high and low records may vary slightly from our data, if they occured in-between our weather recording intervals... More about our weather records

Advertising

Paradise weather history for previous 24 hours

 ConditionsComfort  
Time TempWeatherWind HumidityBarometerVisibility
7:56 PM
Fri, Jul 31
97 °FBroken clouds.12 mph23%29.80 "Hg10 mi
6:56 PM95 °FBroken clouds.12 mph25%29.78 "Hg10 mi
5:56 PM100 °FThunderstorms. Broken clouds.7 mph20%29.78 "Hg10 mi
4:56 PM104 °FScattered clouds.15 mph18%29.78 "Hg10 mi
3:56 PM103 °FScattered clouds.No wind17%29.79 "Hg10 mi
2:56 PM103 °FScattered clouds.7 mph18%29.82 "Hg10 mi
1:56 PM102 °FScattered clouds.3 mph18%29.85 "Hg10 mi
12:56 PM101 °FScattered clouds.7 mph19%29.88 "Hg10 mi
11:56 AM99 °FScattered clouds.No wind21%29.89 "Hg10 mi
10:56 AM97 °FScattered clouds.10 mph21%29.91 "Hg10 mi
9:56 AM94 °FScattered clouds.6 mph25%29.92 "Hg10 mi
8:56 AM92 °FBroken clouds.3 mph28%29.92 "Hg10 mi
7:56 AM91 °FBroken clouds.5 mph26%29.92 "Hg10 mi
6:56 AM91 °FBroken clouds.5 mph28%29.91 "Hg10 mi
5:56 AM89 °FPartly cloudy.5 mph29%29.88 "Hg10 mi
4:56 AM89 °FOvercast.3 mph28%29.87 "Hg10 mi
3:56 AM90 °FOvercast.3 mph27%29.86 "Hg10 mi
2:56 AM90 °FOvercast.No wind27%29.86 "Hg10 mi
1:56 AM91 °FMostly cloudy.5 mph26%29.86 "Hg10 mi
12:56 AM93 °FMostly cloudy.6 mph21%29.85 "Hg10 mi
11:56 PM
Thu, Jul 30
92 °FMostly cloudy.10 mph26%29.88 "Hg10 mi
10:56 PM92 °FMostly cloudy.9 mph27%29.90 "Hg10 mi
9:56 PM92 °FPassing clouds.10 mph28%29.91 "Hg10 mi
8:56 PM93 °FPassing clouds.15 mph28%29.90 "Hg10 mi
Weather by CustomWeather, © 2015

See weather overviewHow to use our weather pages